Back to catalog

FENGYUN 1C DEB

AliveSSO
NORAD 31507·DEBRIS·🇨🇳 China

Launched May 10, 1999 from Taiyuan Satellite Launch Center

Loading…

Next Passes (next 24 hours)

TLE

FreshSource: Space-Track

Epoch: Sep 14, 2026, 08:10 UTC

1 31507U 99025BWW 26257.34058051  .00000944  00000-0  22063-3 0  9992
2 31507  98.1669 287.7887 0113824 308.2138 114.9708 14.53143103 20195

Track FENGYUN 1C DEB in real time with AllMySat

Download on the App Store